QPF
0.01 0.01 0.02 0.01 0.01 0.01 0.01 0.00 0.01 0.01 0.01 0.01 0.01 0.02 0.03 0.03 0.04 0.03 0.03 0.03 0.03 0.03 0.01 0.01 0.01 0.01 0.01 0.00 0.00 0.00 0.00 0.00 0.00 0.00 0.00 0.00 0.01 0.01 0.01 0.00 0.00 0.01 0.01
0.00 0.01 0.02 0.01 0.01 0.01 0.01 0.00 0.00 0.01 0.01 0.01 0.02 0.03 0.04 0.04 0.04 0.03 0.04 0.04 0.02 0.01 0.01 0.00 0.01 0.01 0.00 0.00 0.00 0.00 0.00 0.00 0.00 0.00 0.00 0.00 0.00 0.00 0.00 0.01 0.01 0.01 0.01
0.00 0.01 0.01 0.01 0.01 0.01 0.00 0.00 0.00 0.01 0.01 0.01 0.02 0.03 0.04 0.04 0.03 0.03 0.03 0.02 0.01 0.00 0.01 0.00 0.00 0.00 0.00 0.00 0.00 0.00 0.00 0.00 0.00 0.00 0.00 0.00 0.00 0.00 0.00 0.00 0.01 0.01 0.01
0.00 0.01 0.01 0.01 0.01 0.00 0.00 0.00 0.01 0.01 0.00 0.01 0.01 0.02 0.03 0.02 0.02 0.02 0.01 0.00 0.00 0.00 0.00 0.00 0.00 0.00 0.00 0.00 0.00 0.00 0.00 0.00 0.00 0.00 0.00 0.00 0.00 0.01 0.01 0.01 0.01 0.01 0.01
0.01 0.01 0.01 0.01 0.01 0.00 0.00 0.01 0.01 0.01 0.00 0.01 0.01 0.03 0.02 0.02 0.01 0.01 0.00 0.00 0.00 0.00 0.00 0.00 0.00 0.00 0.00 0.00 0.00 0.00 0.00 0.00 0.00 0.00 0.00 0.00 0.00 0.00 0.00 0.00 0.00 0.00 0.00
0.01 0.01 0.02 0.02 0.01 0.00 0.00 0.01 0.01 0.01 0.01 0.01 0.02 0.02 0.01 0.01 0.00 0.00 0.00 0.00 0.00 0.00 0.00 0.00 0.00 0.00 0.00 0.00 0.00 0.00 0.00 0.00 0.00 0.00 0.00 0.00 0.00 0.00 0.00 0.00 0.00 0.00 0.00
0.01 0.02 0.03 0.02 0.01 0.00 0.01 0.01 0.01 0.01 0.01 0.01 0.02 0.01 0.01 0.00 0.00 0.00 0.00 0.00 0.00 0.00 0.00 0.00 0.00 0.00 0.00 0.00 0.00 0.00 0.00 0.00 0.00 0.00 0.00 0.00 0.00 0.00 0.00 0.00 0.00 0.00 0.00
0.02 0.02 0.04 0.03 0.01 0.01 0.01 0.02 0.01 0.01 0.01 0.01 0.01 0.01 0.00 0.00 0.00 0.00 0.00 0.00 0.00 0.00 0.00 0.00 0.00 0.00 0.00 0.00 0.00 0.00 0.00 0.00 0.00 0.00 0.00 0.00 0.00 0.00 0.00 0.00 0.00 0.00 0.00
0.03 0.04 0.05 0.03 0.02 0.01 0.01 0.02 0.01 0.01 0.01 0.01 0.00 0.00 0.00 0.00 0.00 0.00 0.00 0.00 0.00 0.00 0.00 0.00 0.00 0.00 0.00 0.00 0.00 0.00 0.00 0.00 0.00 0.00 0.00 0.00 0.00 0.00 0.00 0.00 0.00 0.00 0.00
0.08 0.07 0.05 0.03 0.02 0.01 0.01 0.02 0.01 0.01 0.01 0.01 0.00 0.00 0.00 0.00 0.00 0.00 0.00 0.00 0.00 0.00 0.00 0.00 0.00 0.00 0.00 0.00 0.00 0.00 0.00 0.00 0.00 0.00 0.00 0.00 0.00 0.00 0.00 0.00 0.00 0.00 0.00
0.12 0.10 0.07 0.03 0.01 0.01 0.01 0.02 0.01 0.01 0.01 0.00 0.00 0.00 0.00 0.00 0.00 0.00 0.00 0.00 0.00 0.00 0.00 0.00 0.00 0.00 0.00 0.00 0.00 0.00 0.00 0.00 0.00 0.00 0.00 0.00 0.00 0.00 0.00 0.00 0.00 0.00 0.00
0.15 0.11 0.08 0.03 0.01 0.01 0.01 0.01 0.01 0.01 0.01 0.00 0.00 0.00 0.00 0.00 0.00 0.00 0.00 0.00 0.00 0.00 0.00 0.00 0.00 0.00 0.00 0.00 0.00 0.00 0.00 0.00 0.00 0.00 0.00 0.00 0.00 0.00 0.00 0.00 0.00 0.00 0.00
0.22 0.18 0.11 0.06 0.02 0.01 0.01 0.01 0.01 0.01 0.01 0.00 0.00 0.00 0.00 0.00 0.00 0.00 0.00 0.00 0.00 0.00 0.00 0.00 0.00 0.00 0.00 0.00 0.00 0.00 0.00 0.00 0.00 0.00 0.00 0.00 0.00 0.00 0.00 0.00 0.00 0.00 0.00
0.25 0.24 0.19 0.11 0.04 0.02 0.01 0.00 0.00 0.00 0.00 0.00 0.00 0.00 0.00 0.00 0.00 0.00 0.00 0.00 0.00 0.00 0.00 0.00 0.00 0.00 0.00 0.00 0.00 0.00 0.00 0.00 0.00 0.00 0.00 0.00 0.00 0.00 0.00 0.00 0.00 0.01 0.00
0.21 0.21 0.22 0.19 0.10 0.04 0.01 0.01 0.00 0.00 0.00 0.00 0.00 0.00 0.00 0.00 0.00 0.00 0.00 0.00 0.00 0.00 0.00 0.00 0.00 0.00 0.00 0.00 0.00 0.00 0.00 0.00 0.00 0.00 0.00 0.00 0.00 0.00 0.00 0.00 0.00 0.01 0.01
0.18 0.17 0.18 0.19 0.17 0.13 0.06 0.03 0.01 0.01 0.00 0.00 0.00 0.00 0.00 0.00 0.00 0.00 0.00 0.00 0.00 0.00 0.00 0.00 0.00 0.00 0.00 0.00 0.00 0.00 0.00 0.00 0.00 0.00 0.00 0.00 0.00 0.00 0.00 0.00 0.01 0.01 0.02
0.19 0.19 0.17 0.18 0.20 0.20 0.17 0.11 0.05 0.03 0.01 0.01 0.00 0.00 0.00 0.00 0.00 0.00 0.00 0.00 0.00 0.00 0.00 0.00 0.00 0.00 0.00 0.00 0.00 0.00 0.00 0.00 0.00 0.00 0.00 0.00 0.00 0.00 0.00 0.00 0.01 0.02 0.02
0.26 0.23 0.20 0.20 0.21 0.20 0.21 0.20 0.14 0.09 0.05 0.03 0.01 0.00 0.00 0.00 0.00 0.00 0.00 0.00 0.00 0.00 0.00 0.00 0.00 0.00 0.00 0.00 0.00 0.00 0.00 0.00 0.00 0.00 0.00 0.00 0.00 0.00 0.00 0.00 0.00 0.01 0.02
0.25 0.26 0.26 0.23 0.25 0.24 0.21 0.22 0.22 0.17 0.11 0.08 0.04 0.01 0.00 0.00 0.00 0.00 0.00 0.00 0.00 0.00 0.00 0.00 0.00 0.00 0.00 0.00 0.00 0.00 0.00 0.00 0.00 0.00 0.00 0.00 0.00 0.00 0.00 0.00 0.00 0.00 0.01
0.27 0.27 0.27 0.27 0.26 0.31 0.29 0.26 0.26 0.22 0.17 0.15 0.10 0.06 0.03 0.02 0.01 0.00 0.00 0.00 0.00 0.00 0.00 0.00 0.00 0.00 0.00 0.00 0.00 0.00 0.00 0.00 0.00 0.00 0.00 0.00 0.00 0.00 0.00 0.00 0.00 0.00 0.00
0.26 0.27 0.28 0.28 0.29 0.31 0.29 0.26 0.22 0.21 0.20 0.18 0.15 0.11 0.07 0.05 0.02 0.01 0.00 0.00 0.00 0.00 0.01 0.01 0.01 0.01 0.00 0.00 0.00 0.00 0.00 0.00 0.00 0.00 0.00 0.00 0.00 0.00 0.00 0.00 0.00 0.00 0.00
0.17 0.21 0.23 0.25 0.27 0.27 0.26 0.28 0.28 0.28 0.27 0.23 0.19 0.15 0.10 0.07 0.04 0.03 0.02 0.01 0.02 0.02 0.02 0.02 0.01 0.01 0.01 0.01 0.01 0.00 0.00 0.00 0.00 0.00 0.00 0.00 0.00 0.00 0.00 0.00 0.00 0.00 0.00
0.10 0.14 0.20 0.25 0.26 0.25 0.30 0.35 0.33 0.29 0.25 0.19 0.15 0.14 0.13 0.11 0.08 0.06 0.05 0.05 0.05 0.05 0.04 0.03 0.02 0.02 0.02 0.01 0.01 0.01 0.01 0.00 0.00 0.00 0.00 0.00 0.00 0.00 0.00 0.00 0.00 0.00 0.00
0.05 0.09 0.12 0.17 0.21 0.23 0.27 0.28 0.25 0.22 0.17 0.15 0.17 0.19 0.19 0.17 0.15 0.13 0.11 0.09 0.08 0.06 0.04 0.03 0.02 0.01 0.01 0.01 0.01 0.01 0.01 0.01 0.01 0.00 0.00 0.00 0.00 0.00 0.00 0.00 0.00 0.00 0.00
0.05 0.07 0.10 0.14 0.17 0.22 0.25 0.24 0.26 0.25 0.22 0.24 0.24 0.21 0.18 0.16 0.16 0.15 0.13 0.11 0.08 0.06 0.04 0.03 0.02 0.02 0.02 0.02 0.01 0.01 0.02 0.02 0.01 0.01 0.00 0.00 0.00 0.00 0.00 0.00 0.00 0.00 0.00
0.02 0.04 0.07 0.10 0.11 0.14 0.18 0.23 0.23 0.22 0.24 0.24 0.24 0.23 0.19 0.16 0.15 0.13 0.11 0.10 0.08 0.06 0.05 0.03 0.02 0.02 0.02 0.02 0.02 0.02 0.02 0.01 0.01 0.01 0.01 0.00 0.00 0.00 0.00 0.00 0.00 0.00 0.00
MSLP
1013.46 1013.07 1012.88 1012.94 1013.22 1013.66 1014.13 1014.54 1014.81 1014.91 1014.87 1014.77 1014.68 1014.69 1014.82 1015.09 1015.44 1015.83 1016.19 1016.49 1016.71 1016.87 1017.00 1017.15 1017.34 1017.57 1017.83 1018.07 1018.28 1018.42 1018.49 1018.51 1018.49 1018.46 1018.46 1018.48 1018.51 1018.54 1018.56 1018.53 1018.46 1018.37 1018.28
1013.35 1013.03 1012.88 1012.97 1013.27 1013.71 1014.19 1014.60 1014.88 1015.01 1015.01 1014.95 1014.92 1014.98 1015.16 1015.47 1015.86 1016.27 1016.65 1016.96 1017.17 1017.32 1017.44 1017.56 1017.71 1017.90 1018.11 1018.32 1018.50 1018.62 1018.69 1018.71 1018.71 1018.72 1018.74 1018.78 1018.83 1018.86 1018.87 1018.83 1018.74 1018.64 1018.53
1013.14 1012.90 1012.82 1012.96 1013.29 1013.75 1014.25 1014.68 1014.99 1015.15 1015.19 1015.18 1015.20 1015.30 1015.52 1015.85 1016.26 1016.69 1017.07 1017.37 1017.58 1017.72 1017.82 1017.92 1018.04 1018.19 1018.37 1018.54 1018.70 1018.81 1018.88 1018.92 1018.95 1018.99 1019.04 1019.11 1019.17 1019.21 1019.20 1019.15 1019.06 1018.94 1018.82
1012.89 1012.75 1012.75 1012.94 1013.32 1013.81 1014.33 1014.79 1015.12 1015.32 1015.40 1015.43 1015.48 1015.61 1015.85 1016.19 1016.60 1017.02 1017.39 1017.68 1017.89 1018.02 1018.12 1018.20 1018.31 1018.44 1018.59 1018.75 1018.89 1019.01 1019.10 1019.16 1019.22 1019.29 1019.37 1019.45 1019.53 1019.56 1019.55 1019.49 1019.39 1019.26 1019.14
1012.68 1012.63 1012.71 1012.97 1013.39 1013.90 1014.44 1014.91 1015.27 1015.49 1015.61 1015.67 1015.75 1015.90 1016.14 1016.47 1016.86 1017.26 1017.61 1017.89 1018.09 1018.23 1018.33 1018.42 1018.53 1018.66 1018.81 1018.97 1019.11 1019.24 1019.34 1019.43 1019.52 1019.61 1019.71 1019.80 1019.87 1019.91 1019.89 1019.82 1019.71 1019.59 1019.48
1012.57 1012.60 1012.76 1013.07 1013.52 1014.04 1014.58 1015.05 1015.41 1015.65 1015.80 1015.89 1016.00 1016.16 1016.40 1016.71 1017.07 1017.43 1017.76 1018.03 1018.23 1018.38 1018.50 1018.61 1018.74 1018.89 1019.05 1019.21 1019.37 1019.51 1019.63 1019.74 1019.84 1019.94 1020.04 1020.13 1020.19 1020.21 1020.18 1020.11 1020.00 1019.89 1019.80
1012.61 1012.71 1012.92 1013.27 1013.72 1014.23 1014.73 1015.18 1015.54 1015.79 1015.96 1016.09 1016.23 1016.41 1016.65 1016.95 1017.28 1017.61 1017.91 1018.15 1018.35 1018.51 1018.66 1018.80 1018.95 1019.12 1019.31 1019.49 1019.66 1019.80 1019.93 1020.05 1020.15 1020.25 1020.34 1020.41 1020.45 1020.45 1020.42 1020.34 1020.25 1020.17 1020.10
1012.78 1012.95 1013.20 1013.55 1013.98 1014.44 1014.90 1015.31 1015.65 1015.91 1016.11 1016.28 1016.46 1016.68 1016.93 1017.22 1017.53 1017.82 1018.09 1018.32 1018.51 1018.68 1018.84 1019.01 1019.19 1019.38 1019.58 1019.78 1019.95 1020.10 1020.22 1020.33 1020.42 1020.50 1020.57 1020.61 1020.64 1020.62 1020.58 1020.52 1020.45 1020.39 1020.36
1013.05 1013.28 1013.56 1013.89 1014.27 1014.67 1015.06 1015.42 1015.73 1016.00 1016.24 1016.47 1016.71 1016.97 1017.26 1017.56 1017.85 1018.12 1018.35 1018.56 1018.73 1018.90 1019.06 1019.24 1019.44 1019.65 1019.86 1020.05 1020.22 1020.36 1020.47 1020.56 1020.63 1020.68 1020.72 1020.74 1020.74 1020.72 1020.68 1020.63 1020.59 1020.57 1020.57
1013.35 1013.63 1013.93 1014.24 1014.56 1014.89 1015.20 1015.50 1015.78 1016.07 1016.35 1016.65 1016.96 1017.29 1017.62 1017.94 1018.22 1018.47 1018.68 1018.85 1019.00 1019.15 1019.31 1019.49 1019.69 1019.89 1020.10 1020.28 1020.43 1020.55 1020.64 1020.70 1020.74 1020.77 1020.78 1020.78 1020.77 1020.74 1020.71 1020.68 1020.67 1020.68 1020.72
1013.58 1013.93 1014.25 1014.54 1014.81 1015.05 1015.29 1015.53 1015.80 1016.10 1016.43 1016.80 1017.20 1017.60 1017.98 1018.32 1018.60 1018.83 1019.01 1019.15 1019.28 1019.41 1019.56 1019.72 1019.91 1020.10 1020.28 1020.43 1020.56 1020.65 1020.71 1020.74 1020.76 1020.77 1020.76 1020.74 1020.72 1020.70 1020.68 1020.67 1020.69 1020.73 1020.80
1013.69 1014.11 1014.46 1014.74 1014.96 1015.14 1015.32 1015.52 1015.77 1016.09 1016.48 1016.92 1017.38 1017.84 1018.27 1018.63 1018.92 1019.14 1019.29 1019.41 1019.52 1019.63 1019.76 1019.91 1020.08 1020.24 1020.39 1020.51 1020.60 1020.66 1020.69 1020.70 1020.69 1020.68 1020.66 1020.64 1020.62 1020.60 1020.59 1020.59 1020.63 1020.69 1020.78
1013.63 1014.12 1014.51 1014.79 1014.99 1015.14 1015.28 1015.46 1015.71 1016.04 1016.47 1016.96 1017.48 1017.98 1018.44 1018.81 1019.10 1019.31 1019.45 1019.56 1019.66 1019.76 1019.89 1020.03 1020.18 1020.31 1020.43 1020.51 1020.56 1020.59 1020.59 1020.57 1020.55 1020.53 1020.51 1020.49 1020.46 1020.44 1020.43 1020.44 1020.48 1020.56 1020.65
1013.39 1013.94 1014.38 1014.69 1014.89 1015.03 1015.17 1015.34 1015.60 1015.96 1016.41 1016.93 1017.47 1017.99 1018.45 1018.83 1019.11 1019.31 1019.45 1019.57 1019.67 1019.79 1019.93 1020.07 1020.21 1020.32 1020.41 1020.46 1020.47 1020.46 1020.43 1020.40 1020.37 1020.34 1020.31 1020.29 1020.26 1020.23 1020.22 1020.22 1020.25 1020.31 1020.39
1013.00 1013.60 1014.08 1014.42 1014.65 1014.82 1014.98 1015.18 1015.46 1015.84 1016.31 1016.83 1017.37 1017.87 1018.31 1018.67 1018.94 1019.13 1019.29 1019.43 1019.57 1019.72 1019.88 1020.04 1020.18 1020.29 1020.35 1020.36 1020.34 1020.30 1020.24 1020.19 1020.15 1020.11 1020.08 1020.05 1020.01 1019.97 1019.93 1019.91 1019.91 1019.95 1020.02
1012.52 1013.13 1013.63 1014.01 1014.29 1014.51 1014.73 1014.98 1015.30 1015.70 1016.17 1016.68 1017.18 1017.65 1018.04 1018.36 1018.60 1018.80 1018.97 1019.15 1019.34 1019.55 1019.76 1019.96 1020.12 1020.22 1020.27 1020.26 1020.20 1020.13 1020.05 1019.98 1019.92 1019.88 1019.84 1019.80 1019.74 1019.67 1019.61 1019.54 1019.51 1019.51 1019.55
1012.00 1012.59 1013.09 1013.51 1013.85 1014.14 1014.43 1014.75 1015.13 1015.56 1016.02 1016.50 1016.95 1017.35 1017.68 1017.95 1018.17 1018.36 1018.56 1018.79 1019.05 1019.32 1019.59 1019.84 1020.03 1020.14 1020.18 1020.15 1020.07 1019.97 1019.87 1019.78 1019.71 1019.65 1019.60 1019.54 1019.46 1019.36 1019.25 1019.15 1019.08 1019.04 1019.05
1011.51 1012.03 1012.52 1012.95 1013.35 1013.72 1014.10 1014.51 1014.94 1015.40 1015.87 1016.31 1016.70 1017.02 1017.28 1017.50 1017.68 1017.88 1018.11 1018.39 1018.71 1019.06 1019.39 1019.69 1019.91 1020.05 1020.09 1020.04 1019.95 1019.83 1019.71 1019.60 1019.52 1019.45 1019.38 1019.29 1019.19 1019.06 1018.92 1018.79 1018.67 1018.60 1018.59
1011.07 1011.51 1011.95 1012.39 1012.83 1013.29 1013.76 1014.24 1014.74 1015.24 1015.70 1016.10 1016.43 1016.69 1016.88 1017.04 1017.20 1017.39 1017.65 1017.98 1018.36 1018.77 1019.17 1019.52 1019.78 1019.93 1019.98 1019.94 1019.84 1019.71 1019.58 1019.46 1019.36 1019.28 1019.20 1019.10 1018.97 1018.82 1018.66 1018.50 1018.36 1018.26 1018.23
1010.72 1011.05 1011.43 1011.86 1012.33 1012.85 1013.39 1013.96 1014.51 1015.03 1015.49 1015.87 1016.15 1016.34 1016.48 1016.60 1016.74 1016.94 1017.22 1017.59 1018.02 1018.48 1018.93 1019.32 1019.61 1019.79 1019.86 1019.83 1019.73 1019.61 1019.48 1019.37 1019.27 1019.18 1019.08 1018.97 1018.84 1018.67 1018.50 1018.33 1018.18 1018.08 1018.05
1010.45 1010.68 1010.99 1011.40 1011.88 1012.43 1013.03 1013.64 1014.24 1014.78 1015.23 1015.58 1015.82 1015.98 1016.08 1016.18 1016.31 1016.52 1016.82 1017.22 1017.69 1018.19 1018.67 1019.09 1019.41 1019.62 1019.71 1019.71 1019.65 1019.54 1019.43 1019.33 1019.24 1019.15 1019.05 1018.94 1018.80 1018.64 1018.47 1018.30 1018.17 1018.08 1018.05
1010.27 1010.40 1010.65 1011.02 1011.50 1012.06 1012.68 1013.31 1013.92 1014.46 1014.90 1015.23 1015.45 1015.59 1015.68 1015.78 1015.92 1016.15 1016.47 1016.89 1017.38 1017.90 1018.40 1018.84 1019.19 1019.43 1019.56 1019.60 1019.57 1019.51 1019.43 1019.36 1019.28 1019.20 1019.11 1019.00 1018.87 1018.72 1018.57 1018.43 1018.32 1018.26 1018.25
1010.17 1010.24 1010.44 1010.77 1011.22 1011.76 1012.35 1012.97 1013.55 1014.07 1014.50 1014.81 1015.03 1015.17 1015.28 1015.40 1015.57 1015.82 1016.17 1016.61 1017.11 1017.63 1018.14 1018.59 1018.96 1019.23 1019.40 1019.49 1019.52 1019.52 1019.49 1019.45 1019.40 1019.34 1019.26 1019.15 1019.03 1018.90 1018.77 1018.67 1018.60 1018.57 1018.59
1010.15 1010.21 1010.37 1010.66 1011.06 1011.55 1012.09 1012.65 1013.19 1013.66 1014.05 1014.35 1014.57 1014.74 1014.89 1015.05 1015.27 1015.56 1015.94 1016.39 1016.89 1017.41 1017.91 1018.36 1018.74 1019.03 1019.25 1019.40 1019.50 1019.56 1019.59 1019.59 1019.57 1019.53 1019.45 1019.36 1019.25 1019.14 1019.04 1018.98 1018.94 1018.96 1019.01
1010.25 1010.31 1010.46 1010.71 1011.06 1011.47 1011.93 1012.40 1012.86 1013.26 1013.61 1013.89 1014.13 1014.33 1014.53 1014.76 1015.04 1015.39 1015.80 1016.26 1016.75 1017.25 1017.73 1018.17 1018.55 1018.88 1019.14 1019.35 1019.51 1019.63 1019.71 1019.76 1019.77 1019.74 1019.67 1019.59 1019.49 1019.39 1019.32 1019.29 1019.30 1019.35 1019.43
1010.49 1010.57 1010.72 1010.94 1011.22 1011.54 1011.90 1012.26 1012.61 1012.94 1013.23 1013.50 1013.75 1014.00 1014.27 1014.57 1014.92 1015.32 1015.76 1016.23 1016.71 1017.19 1017.64 1018.05 1018.43 1018.76 1019.06 1019.32 1019.54 1019.71 1019.85 1019.93 1019.96 1019.94 1019.88 1019.79 1019.69 1019.61 1019.56 1019.56 1019.60 1019.69 1019.80
Thickness
5752 5754 5754 5752 5751 5750 5749 5749 5748 5748 5748 5748 5748 5748 5747 5746 5744 5742 5740 5738 5737 5735 5733 5732 5730 5728 5727 5725 5724 5723 5722 5721 5720 5719 5719 5718 5718 5717 5716 5715 5714 5714 5713
5752 5751 5750 5749 5748 5747 5746 5745 5745 5745 5745 5745 5745 5745 5745 5743 5742 5739 5737 5735 5734 5732 5730 5729 5727 5725 5723 5722 5721 5720 5719 5718 5717 5716 5715 5715 5715 5714 5713 5712 5711 5710 5709
5750 5748 5747 5745 5744 5743 5742 5742 5741 5741 5741 5742 5742 5741 5741 5740 5738 5736 5734 5732 5730 5729 5727 5725 5723 5721 5720 5719 5718 5717 5716 5715 5714 5713 5712 5712 5712 5711 5710 5709 5708 5707 5706
5745 5744 5743 5741 5740 5739 5739 5738 5737 5737 5738 5738 5738 5737 5737 5736 5734 5732 5730 5728 5727 5725 5723 5721 5720 5718 5717 5716 5715 5714 5713 5712 5711 5710 5709 5709 5709 5708 5707 5706 5705 5704 5703
5739 5738 5738 5737 5736 5735 5735 5734 5733 5733 5733 5734 5733 5733 5732 5731 5730 5728 5726 5724 5723 5721 5720 5718 5716 5715 5714 5713 5713 5711 5710 5709 5708 5707 5706 5706 5705 5705 5703 5702 5701 5700 5699
5731 5732 5732 5732 5731 5730 5730 5730 5729 5729 5729 5729 5729 5728 5727 5726 5725 5723 5722 5720 5719 5718 5716 5715 5713 5712 5711 5710 5709 5708 5707 5706 5705 5704 5703 5702 5702 5701 5700 5698 5697 5696 5695
5724 5726 5726 5726 5726 5726 5725 5725 5725 5724 5724 5724 5724 5724 5723 5721 5720 5719 5717 5716 5715 5714 5713 5711 5710 5709 5708 5707 5706 5705 5703 5702 5702 5701 5700 5699 5699 5698 5697 5695 5694 5692 5691
5718 5719 5720 5720 5720 5721 5721 5720 5720 5720 5719 5719 5719 5719 5718 5717 5715 5714 5714 5712 5712 5711 5710 5708 5707 5706 5705 5704 5703 5701 5701 5700 5699 5698 5697 5696 5696 5695 5694 5692 5690 5689 5687
5711 5712 5713 5715 5715 5715 5716 5715 5715 5715 5714 5714 5714 5714 5713 5712 5711 5710 5710 5709 5708 5707 5706 5705 5704 5703 5702 5701 5700 5699 5698 5697 5696 5695 5694 5693 5693 5692 5691 5689 5687 5685 5684
5703 5705 5707 5708 5710 5710 5710 5710 5710 5710 5710 5709 5709 5709 5708 5707 5706 5705 5705 5704 5704 5703 5702 5701 5700 5700 5699 5698 5697 5696 5695 5695 5694 5693 5692 5691 5690 5689 5688 5686 5684 5682 5680
5694 5698 5700 5702 5704 5704 5705 5705 5705 5705 5705 5704 5703 5703 5703 5702 5701 5701 5700 5700 5699 5699 5698 5698 5697 5696 5696 5695 5694 5694 5693 5692 5691 5690 5690 5689 5688 5686 5685 5683 5682 5680 5677
5687 5691 5694 5696 5698 5699 5700 5700 5700 5700 5700 5699 5698 5698 5697 5697 5696 5696 5696 5695 5695 5695 5694 5694 5694 5693 5693 5692 5691 5691 5690 5689 5688 5688 5687 5686 5685 5684 5683 5681 5679 5677 5675
5683 5686 5688 5690 5692 5694 5695 5695 5695 5694 5694 5694 5693 5693 5692 5692 5691 5691 5691 5691 5691 5690 5690 5690 5690 5689 5689 5688 5688 5687 5686 5686 5685 5685 5685 5684 5683 5682 5681 5679 5677 5675 5672
5678 5680 5682 5684 5686 5688 5690 5690 5690 5690 5689 5689 5689 5688 5688 5687 5687 5687 5687 5686 5686 5686 5686 5686 5686 5685 5685 5685 5684 5684 5684 5683 5682 5682 5682 5681 5680 5679 5678 5677 5675 5672 5670
5676 5677 5678 5679 5681 5683 5685 5686 5686 5686 5686 5685 5684 5684 5684 5683 5683 5682 5682 5682 5682 5682 5682 5682 5681 5681 5681 5681 5681 5681 5680 5680 5679 5679 5679 5678 5678 5677 5675 5674 5672 5670 5667
5675 5676 5676 5676 5676 5678 5680 5681 5682 5682 5682 5681 5681 5680 5680 5679 5679 5678 5678 5678 5678 5678 5677 5677 5677 5676 5676 5676 5676 5676 5676 5676 5675 5675 5675 5674 5674 5673 5672 5671 5669 5667 5664
5671 5675 5674 5675 5674 5674 5676 5678 5678 5677 5677 5677 5677 5677 5676 5676 5675 5675 5674 5674 5674 5674 5673 5672 5672 5672 5671 5671 5671 5672 5671 5671 5671 5671 5671 5671 5670 5669 5668 5667 5665 5662 5660
5664 5667 5669 5671 5671 5672 5673 5674 5674 5674 5673 5673 5673 5673 5673 5672 5672 5671 5670 5670 5670 5670 5669 5668 5667 5666 5666 5666 5666 5666 5667 5667 5667 5667 5666 5666 5666 5665 5663 5662 5660 5657 5655
5660 5663 5665 5668 5669 5670 5671 5671 5671 5670 5669 5669 5670 5669 5669 5669 5669 5668 5668 5667 5666 5665 5664 5663 5662 5661 5661 5660 5661 5661 5661 5662 5663 5662 5662 5661 5660 5659 5658 5656 5654 5651 5649
5656 5658 5661 5664 5666 5667 5666 5665 5666 5666 5666 5666 5666 5666 5666 5665 5665 5664 5664 5663 5662 5660 5659 5658 5657 5656 5655 5655 5655 5655 5656 5657 5657 5656 5655 5655 5654 5652 5651 5649 5646 5644 5641
5650 5653 5656 5658 5661 5662 5661 5660 5660 5661 5663 5663 5663 5662 5661 5661 5661 5660 5659 5658 5657 5655 5654 5653 5651 5649 5648 5647 5647 5647 5649 5649 5649 5648 5647 5646 5645 5644 5642 5640 5638 5635 5631
5645 5649 5652 5654 5656 5658 5659 5659 5659 5659 5658 5659 5659 5658 5657 5656 5656 5656 5655 5653 5651 5650 5648 5646 5644 5642 5640 5639 5638 5637 5636 5638 5640 5639 5638 5636 5634 5633 5632 5629 5627 5624 5621
5641 5644 5648 5650 5652 5654 5654 5653 5652 5651 5650 5650 5652 5653 5653 5652 5651 5651 5649 5648 5646 5644 5641 5639 5637 5635 5632 5629 5629 5628 5625 5625 5627 5629 5627 5624 5623 5621 5619 5617 5614 5612 5610
5637 5641 5645 5646 5648 5650 5649 5649 5648 5647 5646 5646 5647 5647 5646 5645 5644 5644 5643 5641 5639 5637 5634 5632 5630 5628 5625 5622 5620 5619 5618 5617 5615 5616 5617 5613 5611 5609 5607 5605 5603 5600 5598
5632 5636 5639 5641 5643 5644 5644 5645 5644 5643 5643 5642 5640 5639 5638 5637 5637 5636 5635 5632 5630 5628 5626 5624 5621 5620 5618 5615 5612 5610 5608 5606 5605 5604 5605 5603 5600 5597 5595 5593 5591 5589 5587
5626 5629 5631 5633 5635 5637 5638 5638 5638 5638 5636 5635 5633 5632 5630 5629 5628 5627 5625 5624 5622 5620 5617 5615 5613 5610 5608 5606 5604 5602 5599 5598 5596 5594 5595 5594 5591 5587 5583 5581 5579 5576 5574